Lid_Strength_Index
11 11 11 11 11 11 11 12 11 11 11 11 11 11 11 11 11 11 10 10 11 11 11 11 11 12 12 13 12 12 12 12
11 10 10 11 11 11 11 11 12 12 12 12 11 11 12 12 12 11 11 11 11 11 12 12 12 12 13 13 13 13 13 13
12 11 11 12 12 12 12 12 12 12 12 12 11 11 12 12 12 12 12 11 12 12 12 12 12 12 12 13 13 13 13 13
12 12 10 11 12 12 12 12 13 13 13 12 12 12 12 12 12 12 12 12 12 13 13 13 12 12 12 12 12 13 13 13
13 12 10 11 12 12 12 12 12 13 13 13 13 13 12 12 12 13 13 13 13 13 13 13 12 12 13 13 13 13 14 13
13 12 11 12 13 13 13 12 12 13 13 12 12 12 13 13 12 13 13 14 14 14 14 13 13 13 13 14 14 13 14 14
12 11 11 11 13 13 13 12 12 13 13 13 13 14 15 13 13 13 13 14 14 15 15 15 14 13 12 13 14 14 14 15
11 11 10 10 11 12 12 12 12 13 13 13 13 15 16 14 14 14 13 12 13 13 14 14 14 13 12 12 14 15 15 15
10 10 10 9 11 11 11 12 12 13 13 13 14 15 16 15 16 15 14 14 13 12 13 13 13 12 12 12 13 14 14 14
9 9 9 10 10 11 11 11 12 12 12 13 13 15 15 16 16 15 15 14 13 12 12 13 13 12 12 12 13 13 14 14
8 9 9 9 10 11 11 11 11 11 12 12 13 14 15 15 16 15 14 14 13 13 12 13 13 13 12 12 13 13 13 14
8 9 9 9 10 11 11 12 11 11 12 12 13 14 14 15 14 15 15 14 14 13 12 12 12 12 12 12 12 13 13 14
9 10 10 10 11 12 12 11 11 12 13 14 15 15 15 16 16 16 15 15 15 13 12 11 11 11 11 12 12 11 13 13
10 11 11 11 11 13 13 12 13 15 16 16 16 16 17 17 17 17 16 16 15 14 12 12 11 10 11 11 11 12 12 12
12 13 14 13 13 14 14 15 17 18 18 17 18 18 18 17 17 17 17 16 15 14 13 12 11 11 11 12 12 12 13 12
15 15 16 16 16 17 17 18 20 20 20 20 19 19 19 19 18 18 17 16 16 15 14 14 13 11 10 11 12 12 11 13
17 18 18 19 20 20 21 21 22 22 22 22 22 21 21 21 21 17 16 15 14 13 13 13 11 10 9 10 10 10 10 13
19 20 21 22 22 22 23 23 24 24 24 23 23 23 23 22 22 23 20 16 15 14 13 12 11 9 8 9 9 9 9 13
21 22 23 23 24 23 23 24 24 24 24 24 23 23 22 22 22 22 22 22 20 16 15 13 10 9 8 8 9 11 10 12
23 22 22 24 25 24 24 25 24 23 23 23 22 22 22 22 22 21 21 21 20 19 16 14 12 10 9 9 10 11 11 12